Meteo Giornale » Osservazioni meteo Gran Bretagna » Biggin Hill

ore: 06:50 - Osservazioni Meteo Biggin Hill
Lat. 51° 19' N Lon. 0° 2' E Alt. 183 metri s.l.m.

sereno

15 °C

Sereno

Temp. 24 Ore

13 °C

21 °C

Sud/Sud-Ovest

7.4 Km/h

Dew point 13 °C

Umidità 87 %

Visibilità  10 Km

Il sole sorge alle ore 06:14

Il sole tramonta alle ore 19:44

Data e Ora Cielo e Fenomeni T °C DP °C Um. % Pres. hPa Vis. km Vento km/h
Oggi h: 06:50 sereno Sereno 15 13 87 1020 10 S/SO 7.4
Oggi h: 06:20 sereno Sereno 14 12 87 1020 10 S/SO 9.3
Oggi h: 05:50 poco_nuvoloso Poco Nuvoloso 15 12 82 1020 10 S/SO 9.3
Oggi h: 05:20 sereno Sereno 15 13 87 1020 10 S/SO 7.4
Oggi h: 04:50 sereno Sereno 15 13 87 1020 10 N 5.5
Oggi h: 04:20 sereno Sereno 15 12 82 1020 10 SO 7.4
Oggi h: 03:50 sereno Sereno 15 12 82 1020 10 SO 9.3
Oggi h: 03:20 sereno Sereno 15 12 82 1020 10 SO 9.3
Oggi h: 02:50 sereno Sereno 15 12 82 1020 10 SO 7.4
Oggi h: 02:20 sereno Sereno 15 12 82 1020 10 SO 7.4
Oggi h: 01:50 sereno Sereno 15 12 82 1020 10 SO 7.4
Oggi h: 01:20 sereno Sereno 15 12 82 1021 10 SO 7.4
Oggi h: 00:50 sereno Sereno 16 12 77 1021 10 O/SO 7.4
Oggi h: 00:20 sereno Sereno 16 11 72 1021 10 O/SO 9.3
Ieri h: 23:50 sereno Sereno 16 11 72 1021 10 O/SO 7.4
Ieri h: 23:20 sereno Sereno 16 11 72 1021 10 O/SO 9.3
Ieri h: 22:50 sereno Sereno 16 11 72 1021 10 SO 11.1
Ieri h: 22:20 sereno Sereno 16 11 72 1021 10 SO 11.1
Ieri h: 21:50 sereno Sereno 16 11 72 1021 10 SO 14.8
Ieri h: 21:20 sereno Sereno 16 11 72 1021 10 SO 14.8
Ieri h: 20:50 sereno Sereno 17 11 67 1021 10 SO 18.5
Ieri h: 20:20 sereno Sereno 17 11 67 1021 10 SO 16.7
Ieri h: 19:50 sereno Sereno 18 11 63 1020 10 SO 16.7
Ieri h: 19:20 sereno Sereno 18 10 59 1020 10 SO 13
Ieri h: 18:50 sereno Sereno 19 10 55 1020 10 SO 14.8
Ieri h: 18:20 sereno Sereno 20 9 49 1020 10 SO 16.7
Ieri h: 17:50 sereno Sereno 20 9 49 1020 10 SO 18.5
Ieri h: 17:20 sereno Sereno 21 8 43 1020 10 O/SO 11.1
Ieri h: 16:50 sereno Sereno 21 8 43 1020 10 O/SO 18.5
Ieri h: 16:20 nuvoloso Nuvoloso 21 8 43 1020 10 O/SO 20.3
Ieri h: 15:50 nuvoloso Nuvoloso 20 8 45 1020 10 O 20.3
Ieri h: 15:20 nuvoloso Nuvoloso 20 9 49 1020 10 O/SO 20.3
Ieri h: 14:50 nuvoloso Nuvoloso 21 10 49 1020 10 SO 20.3
Ieri h: 14:20 nuvoloso Nuvoloso 21 9 46 1021 10 SO 20.3
Ieri h: 13:50 nuvoloso Nuvoloso 19 9 52 1021 10 O/SO 16.7
Ieri h: 13:20 nuvoloso Nuvoloso 20 9 49 1021 10 O/SO 14.8
Ieri h: 12:50 poco_nuvoloso Poco Nuvoloso 19 8 48 1021 10 O/NO 18.5
Ieri h: 12:20 poco_nuvoloso Poco Nuvoloso 19 7 45 1021 10 O 16.7
Ieri h: 11:50 poco_nuvoloso Poco Nuvoloso 19 8 48 1021 10 SO 18.5
Ieri h: 11:20 poco_nuvoloso Poco Nuvoloso 18 8 51 1021 10 O 14.8
Ieri h: 10:50 poco_nuvoloso Poco Nuvoloso 17 8 55 1022 10 O 14.8
Ieri h: 10:20 poco_nuvoloso Poco Nuvoloso 17 9 59 1022 10 O 13
Ieri h: 09:50 sereno Sereno 17 10 63 1022 10 O 11.1
Ieri h: 09:20 sereno Sereno 16 10 67 1021 10 O 11.1
Ieri h: 08:50 sereno Sereno 14 11 82 1021 10 O/SO 9.3
Ieri h: 08:20 sereno Sereno 13 10 81 1021 10 O/SO 11.1
Ieri h: 07:50 sereno Sereno 13 10 81 1021 10 O/SO 9.3